sat.trackr.live / text

‹ back to catalog

STARLINK-30301

NORAD 57666 · 2023-124D

PAYLOAD ACTIVE UNKNOWN

§ Identity

Operator
Country
US
Launch date
2023-08-22
Launch site
AFWTR
Launch vehicle
Mass (kg)
RCS (m²)

Purposes: comms

External: N2YO · Heavens-Above · Gunter

§ Orbital elements

Epoch: 2026-09-20T05:11:29.835456Z

Period
93.85 min
Inclination
53.1605°
Eccentricity
0.0000417
Mean motion
15.34413415 rev/d
Perigee alt
462.4 km
Apogee alt
462.9 km
Semi-major
6,840.8 km
B*
9.7724e-4
RAAN
81.6642°
Arg perigee
179.3942°
Mean anomaly
180.7062°
Rev number
17,250

§ Raw data

STARLINK-303011 57666U 23124D   26263.21631754  .00032800  00000+0  97724-3 0  99942 57666  53.1605  81.6642 0000417 179.3942 180.7062 15.34413415172506

JSON: /api/v1/satellites/57666 · /tle

For live sub-satellite position, see the globe view (requires WebGL).

§ Visibility from observer

Set your observer location to see the next 7 days of passes ≥ 10°. The values pass through the URL so the page stays shareable.

No JS? Fill the form by hand. The geolocation button needs JavaScript.